Temperature
-1 -0 -1 -1 -1 -2 -1 -0 0 1 0 1 0 -0 0 1 1 1 1 1 1 1 1 1 1 1 1 1 1 1 1 1 1 1 1 1 1 1 1 1 1 1 1 1
-1 -1 -1 -1 -1 -2 -2 -1 -1 -1 -0 -0 -0 -0 -0 -0 0 -0 0 0 0 0 0 0 1 1 1 1 1 1 1 1 1 1 1 1 1 1 1 1 1 1 0 0
-1 -1 -1 -0 -1 -2 -2 -2 -2 -1 -0 -1 -2 -1 -1 -1 -0 -0 -0 -0 -0 -0 0 0 0 0 0 0 0 0 1 1 1 1 1 1 1 1 0 0 0 0 -0 -0
-2 -1 0 1 -1 -2 -2 -2 -3 -2 -2 -2 -2 -1 -1 -0 -1 -1 -0 -0 -0 -0 -0 -0 -0 -0 -0 -0 -0 0 0 1 1 0 0 0 0 0 0 -0 -0 -0 -0 -0
-2 -1 -1 -0 -1 -2 -2 -1 -2 -3 -3 -2 -2 -2 -1 -0 -1 -1 -1 -1 -1 -1 -1 -0 -0 -0 -0 -0 -0 -0 -0 0 0 -0 -0 -0 -0 -0 -0 -1 -1 -1 -1 -1
-3 -1 0 1 -1 -2 -1 -1 -1 -2 -3 -3 -3 -2 -1 -1 -1 -1 -1 -1 -1 -1 -1 -1 -1 -1 -1 -1 -1 -1 -1 -1 -1 -1 -1 -1 -1 -1 -1 -1 -1 -1 -1 -1
-3 -2 -1 -1 -2 -2 -0 0 -1 -1 -2 -2 -3 -2 -1 -1 -1 -1 -1 -1 -1 -1 -1 -1 -1 -1 -1 -1 -1 -1 -1 -1 -1 -1 -1 -1 -1 -1 -1 -2 -2 -2 -2 -2
-4 -2 -1 -2 -3 -2 -1 -0 -1 -1 -1 -1 -1 -1 -1 -1 -1 -1 -1 -1 -1 -1 -1 -1 -1 -1 -1 -1 -1 -2 -2 -1 -2 -2 -2 -2 -2 -2 -2 -2 -3 -3 -3 -3
-3 -1 -1 -2 -1 -1 -1 -1 -1 -1 -1 -1 -1 -1 -1 -1 -1 -1 -1 -1 -1 -1 -1 -1 -1 -2 -2 -2 -2 -2 -2 -2 -2 -2 -2 -2 -3 -3 -3 -3 -3 -3 -3 -3
-5 -4 -3 -1 -1 -1 -1 -1 -1 -1 -1 -1 -1 -2 -2 -2 -2 -2 -2 -2 -2 -2 -2 -2 -2 -2 -2 -2 -2 -2 -2 -2 -3 -3 -3 -3 -3 -3 -3 -3 -4 -4 -4 -4
-5 -4 -3 -1 -0 -0 -0 -1 -1 -1 -1 -1 -2 -2 -2 -2 -2 -2 -2 -2 -2 -2 -2 -3 -2 -2 -3 -3 -3 -3 -3 -3 -3 -3 -3 -3 -4 -4 -4 -4 -4 -4 -4 -4
-3 -2 -3 -1 0 -0 -1 -1 -1 -1 -2 -2 -2 -2 -2 -2 -3 -3 -3 -3 -3 -3 -3 -3 -3 -3 -3 -3 -3 -3 -4 -4 -4 -4 -4 -4 -4 -4 -4 -4 -4 -4 -4 -4
-1 -1 -1 -1 -1 -1 -1 -1 -1 -2 -2 -2 -2 -2 -3 -3 -3 -3 -3 -3 -3 -3 -3 -3 -3 -3 -3 -4 -4 -4 -4 -4 -4 -4 -4 -4 -4 -4 -4 -4 -4 -4 -4 -4
-1 -1 -2 -1 -1 -1 -1 -2 -2 -2 -2 -3 -3 -3 -3 -3 -3 -3 -3 -4 -4 -4 -4 -4 -4 -4 -4 -4 -4 -4 -4 -4 -4 -5 -5 -5 -5 -5 -5 -5 -5 -5 -5 -5
-1 -1 -2 -1 -2 -2 -2 -2 -2 -2 -3 -3 -3 -3 -3 -3 -3 -4 -4 -4 -4 -4 -4 -4 -4 -4 -4 -4 -4 -4 -4 -4 -5 -5 -5 -5 -5 -5 -5 -5 -5 -5 -5 -5
-1 -2 -2 -2 -2 -2 -2 -3 -3 -3 -3 -3 -3 -3 -4 -4 -4 -4 -4 -4 -4 -4 -4 -4 -4 -4 -4 -4 -4 -4 -4 -5 -5 -5 -5 -5 -5 -5 -5 -5 -5 -5 -5 -5
-2 -2 -2 -2 -2 -2 -3 -3 -3 -3 -3 -4 -4 -4 -4 -4 -4 -4 -4 -4 -4 -4 -4 -4 -4 -4 -4 -4 -4 -4 -4 -5 -5 -5 -5 -5 -5 -5 -5 -6 -6 -6 -6 -6
-2 -2 -2 -2 -2 -3 -3 -3 -3 -3 -3 -4 -4 -4 -4 -4 -4 -4 -4 -4 -4 -4 -4 -5 -5 -5 -5 -5 -5 -5 -5 -5 -5 -5 -5 -5 -5 -5 -5 -6 -6 -6 -6 -6
-2 -2 -3 -3 -3 -3 -3 -3 -3 -3 -4 -4 -4 -4 -4 -4 -4 -5 -5 -5 -5 -5 -5 -5 -5 -5 -5 -5 -5 -5 -5 -5 -5 -5 -5 -5 -5 -5 -5 -6 -6 -6 -6 -6
-2 -3 -3 -3 -3 -3 -3 -3 -3 -4 -4 -4 -4 -4 -4 -4 -5 -5 -5 -5 -5 -5 -5 -5 -5 -5 -5 -5 -5 -5 -5 -5 -5 -6 -6 -6 -6 -6 -5 -5 -6 -6 -6 -6
-2 -3 -3 -3 -3 -3 -3 -3 -3 -4 -4 -4 -4 -4 -5 -5 -5 -5 -5 -5 -5 -5 -6 -5 -5 -5 -5 -5 -5 -5 -5 -5 -6 -6 -6 -6 -6 -6 -6 -6 -6 -6 -6 -6
-3 -3 -3 -3 -3 -3 -3 -3 -4 -4 -4 -4 -4 -5 -5 -5 -5 -5 -5 -6 -6 -6 -6 -6 -5 -6 -5 -5 -5 -5 -5 -5 -6 -6 -6 -6 -6 -6 -6 -6 -6 -6 -6 -6
-3 -3 -3 -3 -3 -3 -3 -4 -4 -4 -4 -4 -4 -5 -5 -5 -5 -6 -6 -6 -6 -6 -6 -6 -6 -6 -6 -6 -6 -6 -6 -6 -6 -6 -6 -6 -6 -6 -6 -6 -6 -6 -6 -6
-3 -3 -3 -3 -4 -4 -4 -4 -4 -4 -4 -4 -5 -5 -5 -5 -5 -6 -6 -6 -6 -6 -6 -6 -6 -6 -6 -6 -6 -6 -6 -6 -6 -6 -6 -6 -6 -6 -6 -6 -6 -6 -6 -6
-3 -3 -3 -4 -4 -4 -4 -4 -4 -4 -4 -4 -5 -5 -5 -5 -6 -6 -6 -6 -6 -6 -6 -6 -6 -6 -6 -6 -6 -6 -6 -6 -6 -6 -6 -6 -6 -6 -6 -6 -6 -6 -6 -6
-4 -4 -4 -4 -4 -4 -4 -4 -4 -4 -5 -5 -5 -5 -5 -6 -6 -6 -6 -6 -6 -6 -6 -6 -6 -6 -6 -6 -6 -6 -6 -6 -6 -6 -6 -6 -6 -6 -6 -6 -6 -6 -6 -6
-4 -4 -4 -4 -4 -4 -4 -4 -4 -5 -5 -5 -5 -5 -5 -6 -6 -6 -6 -6 -6 -6 -6 -6 -6 -6 -6 -6 -6 -6 -6 -6 -6 -6 -6 -6 -6 -6 -6 -6 -6 -6 -6 -6
Wind_Speed
6 6 3 5 6 6 8 7 8 8 8 11 8 7 7 6 6 7 7 7 7 7 7 7 7 6 6 6 5 5 4 5 5 4 3 3 3 3 3 3 3 2 2 2
4 3 3 5 6 7 7 6 8 9 11 8 7 4 5 6 6 7 7 7 8 8 8 8 8 7 7 6 6 5 5 5 4 3 3 3 2 2 2 2 2 1 1 2
4 4 3 6 6 7 5 5 6 8 8 5 7 6 7 7 6 7 7 8 8 8 8 8 7 6 6 6 5 5 5 4 3 3 3 3 2 1 1 1 0 0 1 1
2 3 4 5 1 4 4 4 5 5 5 6 7 8 7 5 5 6 7 8 8 8 8 8 7 6 5 5 5 4 4 4 3 3 2 2 0 0 0 0 0 0 0 0
1 2 7 6 1 2 3 5 4 5 6 6 6 6 5 2 3 6 7 7 7 7 7 7 6 5 4 4 4 4 4 4 3 2 2 1 1 1 0 1 1 1 0 1
2 2 5 5 1 1 1 4 2 3 4 4 4 4 5 5 7 7 6 6 6 7 6 6 6 4 3 4 4 5 5 4 3 2 2 2 1 1 1 1 1 1 1 1
3 4 7 5 1 2 2 5 3 3 3 3 3 5 6 7 7 7 6 6 6 5 5 5 5 4 4 4 5 5 4 4 3 2 2 1 1 2 2 2 2 2 2 2
4 3 7 1 3 4 5 3 2 3 3 4 5 6 6 6 7 7 7 7 6 5 5 5 4 4 4 5 5 5 4 4 4 3 3 2 2 2 2 2 2 2 2 3
7 6 4 3 5 4 3 3 4 3 4 3 5 6 6 6 6 7 7 7 6 5 5 5 5 4 4 5 5 4 5 5 4 4 4 3 2 2 2 2 1 1 2 2
4 7 6 6 5 5 4 5 5 4 4 3 4 5 5 5 6 6 6 6 5 5 6 6 6 5 4 5 5 4 5 5 5 4 4 4 3 2 2 1 1 1 1 2
5 6 6 4 5 5 4 4 4 4 3 3 3 4 4 4 5 5 5 5 5 4 5 6 6 6 6 5 5 4 4 4 4 4 3 4 4 3 2 1 1 1 1 1
6 5 4 5 4 3 3 4 4 3 4 3 2 4 4 4 4 4 5 5 5 5 5 5 6 6 6 5 4 3 4 4 3 3 2 2 3 3 5 4 5 4 3 2
5 3 4 4 3 2 3 3 3 3 3 3 3 2 3 3 3 4 4 5 5 5 5 5 5 5 6 5 4 3 3 3 2 2 2 2 2 3 3 5 6 6 5 5
4 2 3 3 3 3 2 2 2 2 2 2 2 2 2 3 3 4 4 5 4 4 4 4 5 5 5 4 3 3 3 3 3 2 2 2 2 2 2 2 3 3 5 6
5 5 5 3 2 2 1 1 2 3 3 3 2 2 2 3 4 4 4 4 4 4 4 4 5 6 5 3 3 3 3 2 2 2 2 2 2 2 2 2 2 2 3 4
3 2 3 3 3 2 1 1 1 3 3 3 3 3 3 3 3 4 4 4 3 4 5 5 5 5 4 3 3 3 3 4 3 2 2 2 1 1 1 1 2 2 2 3
2 2 2 3 4 3 3 3 3 3 3 3 3 3 3 3 3 4 4 4 3 4 4 4 5 6 4 3 3 2 2 3 4 3 2 1 1 1 1 1 2 2 2 3
5 5 4 4 4 3 4 3 3 3 3 3 2 2 2 2 3 4 4 4 4 5 5 4 5 5 4 3 2 2 2 2 2 2 2 1 1 1 1 1 2 2 2 3
3 3 3 3 3 3 3 3 3 2 2 1 1 1 2 2 3 3 3 3 4 5 5 5 7 5 4 4 3 2 2 2 2 2 2 2 2 1 1 1 1 2 2 2
2 2 2 2 2 2 2 2 2 1 1 1 1 1 2 3 3 3 2 2 3 3 4 5 4 4 3 3 3 2 2 2 2 2 2 2 2 2 1 1 1 2 2 2
2 2 1 1 2 2 2 2 1 1 1 1 1 2 2 3 3 2 2 3 4 4 4 5 4 3 3 3 3 2 1 1 2 2 2 2 2 2 2 2 2 2 2 2
2 1 2 2 1 2 2 1 1 1 1 1 1 1 2 2 3 2 2 3 3 5 4 3 3 4 4 3 2 1 1 2 2 2 2 2 2 2 2 2 2 2 2 2
2 2 2 2 2 1 1 1 1 1 1 2 2 2 2 2 2 2 3 3 3 4 3 3 4 5 5 3 2 1 2 2 2 2 2 2 2 2 2 2 2 2 2 2
2 2 2 1 1 1 1 2 1 1 2 2 2 2 2 2 2 2 2 4 4 4 3 4 5 5 4 2 2 1 1 2 2 2 2 2 2 2 2 2 2 2 2 2
2 2 1 2 2 2 2 1 1 1 1 1 2 2 2 2 2 2 2 3 4 3 3 4 5 5 3 2 2 1 1 1 2 2 1 1 2 2 2 2 2 2 2 2
2 2 2 3 2 2 1 1 1 1 1 2 2 2 2 1 2 2 2 2 2 3 2 2 3 3 2 2 2 2 1 2 2 2 2 1 2 2 2 2 2 2 2 2
1 1 1 1 1 2 2 2 2 2 2 2 2 2 2 1 1 1 1 2 2 2 2 2 2 2 2 2 2 2 2 1 1 1 1 1 1 2 2 2 2 2 2 2
Wind_Direction
262 271 249 241 236 210 210 213 223 252 258 277 292 295 299 303 315 324 325 327 324 320 317 316 317 313 308 303 303 301 296 290 285 286 278 266 253 245 246 245 248 241 252 261
283 282 263 271 255 227 232 235 245 267 274 278 297 304 309 305 308 314 314 315 316 316 315 314 313 312 311 308 308 308 295 284 287 296 292 271 261 249 243 246 245 233 242 255
278 319 332 282 246 209 215 217 206 237 259 307 316 310 302 299 302 300 303 306 308 308 305 304 305 306 304 302 306 307 303 296 291 293 295 285 265 244 237 239 221 255 264 260
287 14 262 257 309 192 216 251 224 248 280 294 294 299 293 283 291 297 303 305 308 310 309 308 307 306 309 315 312 308 313 313 307 302 302 310 310 236 241 121 104 27 290 322
168 257 280 295 269 167 199 277 230 241 280 303 319 324 311 305 320 301 299 301 303 305 306 310 312 314 322 333 336 331 327 322 319 321 328 351 6 1 47 80 56 32 9 48
155 208 252 269 279 244 117 293 268 230 272 302 344 338 300 314 323 318 315 314 313 315 316 321 322 331 342 342 345 334 326 323 329 346 5 4 353 12 51 68 49 28 19 30
195 232 265 269 281 110 143 270 294 240 256 257 248 250 282 311 319 320 320 319 324 327 329 330 336 349 350 346 333 325 333 345 352 3 9 31 34 33 48 53 48 41 24 9
172 211 260 225 125 178 236 281 270 260 257 259 270 286 299 310 316 324 331 335 337 339 336 341 353 0 350 335 330 343 355 4 6 11 18 36 52 41 44 62 57 37 35 15
198 217 256 199 215 245 250 268 270 267 273 275 284 291 302 311 318 325 332 334 339 343 345 352 358 0 342 332 345 360 13 13 14 18 28 32 42 45 45 50 63 37 35 21
254 263 259 254 259 269 257 259 273 272 271 274 276 286 301 311 319 327 332 334 343 355 357 351 353 357 349 346 360 17 17 13 21 25 22 21 25 35 51 40 41 31 27 13
257 275 294 274 251 260 267 271 282 292 279 273 277 290 297 307 315 322 331 336 347 355 348 343 349 352 351 357 9 16 12 13 20 21 18 19 22 26 24 10 11 26 14 355
234 240 228 268 280 261 256 273 281 294 308 314 294 291 304 305 315 326 333 340 345 349 347 342 347 346 348 356 11 17 11 11 13 11 15 22 26 28 28 28 24 17 9 2
237 253 238 269 291 285 266 276 290 289 289 304 314 306 305 311 327 336 338 339 337 337 338 339 344 343 344 354 8 15 6 0 5 7 10 14 20 24 17 20 26 30 33 31
243 256 272 271 277 302 305 312 324 330 327 321 321 328 328 328 332 335 329 325 328 335 340 343 345 340 341 357 9 7 2 0 2 4 3 9 18 19 16 15 12 14 21 29
246 227 233 266 300 323 334 356 359 341 339 341 342 338 336 329 322 322 324 331 340 344 343 346 343 334 341 3 11 3 0 360 3 7 9 11 17 22 24 19 9 356 2 12
269 242 234 250 266 280 301 304 298 302 314 320 326 322 316 311 315 328 337 347 351 341 335 339 333 331 343 2 6 1 358 359 360 359 2 10 18 21 16 11 357 350 348 344
204 244 247 260 266 270 265 253 246 265 288 298 301 311 327 339 341 338 338 339 331 326 329 333 327 334 348 358 1 353 349 352 354 354 355 354 355 352 344 345 342 338 332 336
222 230 227 228 236 252 270 269 261 267 274 280 301 327 339 337 322 319 325 335 343 345 339 332 329 338 349 353 356 353 348 345 344 341 338 342 343 337 336 330 326 323 324 336
227 234 243 245 242 233 248 258 260 264 273 270 277 296 304 305 310 316 329 344 345 335 329 332 339 351 347 347 353 359 352 347 344 339 340 341 343 335 324 318 322 322 323 330
248 249 250 262 256 238 247 262 260 267 265 241 265 317 324 319 320 321 327 320 300 292 309 325 336 340 337 342 351 355 352 350 346 340 337 331 324 323 321 317 317 318 319 320
257 263 264 272 279 272 252 241 229 240 252 221 230 268 291 306 311 312 318 314 311 314 323 330 337 328 330 342 351 2 355 344 337 332 328 324 321 323 321 320 322 321 318 316
251 246 257 267 272 297 303 270 216 210 223 242 260 278 297 306 308 301 280 272 300 324 334 328 324 327 341 353 7 2 347 338 333 329 326 320 317 315 318 322 323 322 320 319
237 232 236 242 243 268 315 316 230 213 228 240 249 261 272 278 283 287 300 301 310 323 331 319 325 337 351 3 1 355 340 332 326 320 316 313 311 309 309 317 320 319 321 323
233 236 238 235 190 189 285 295 281 258 250 257 258 257 263 285 295 274 277 307 322 325 325 322 336 345 354 357 346 338 331 324 320 317 317 320 321 320 318 317 318 319 322 325
225 221 207 191 203 233 245 259 288 290 289 292 292 286 274 253 260 289 302 306 317 331 329 330 342 349 354 342 333 326 318 309 314 319 320 326 326 326 322 319 320 320 319 326
213 220 227 227 226 228 223 220 238 258 267 293 305 300 300 297 286 296 307 310 315 329 332 327 333 341 339 332 325 322 320 318 323 325 325 326 325 325 320 320 320 320 325 331
198 206 213 249 245 213 207 215 227 240 239 246 278 286 290 298 305 310 314 320 322 325 323 325 328 330 331 330 326 324 327 323 323 329 329 326 323 315 315 318 325 328 334 335
Height
1490 1487 1487 1486 1486 1488 1488 1483 1483 1474 1472 1462 1460 1459 1456 1453 1451 1449 1447 1445 1443 1441 1439 1436 1434 1432 1430 1428 1427 1425 1423 1421 1419 1418 1418 1418 1417 1417 1417 1417 1417 1417 1418 1418
1489 1485 1485 1484 1481 1482 1482 1481 1479 1475 1469 1461 1459 1457 1455 1452 1450 1448 1445 1443 1442 1440 1437 1434 1432 1429 1427 1425 1423 1421 1420 1418 1417 1416 1415 1415 1414 1414 1414 1414 1414 1414 1414 1414
1489 1487 1483 1480 1474 1476 1476 1474 1474 1471 1465 1461 1458 1456 1454 1451 1449 1447 1445 1443 1440 1438 1435 1432 1429 1427 1425 1423 1421 1418 1417 1415 1414 1413 1412 1412 1411 1411 1411 1411 1411 1411 1411 1411
1492 1489 1484 1471 1469 1469 1470 1469 1469 1466 1463 1461 1458 1455 1452 1450 1448 1445 1443 1441 1438 1435 1432 1430 1427 1424 1422 1420 1418 1416 1414 1413 1412 1411 1410 1410 1409 1409 1408 1408 1408 1409 1409 1409
1494 1491 1482 1470 1468 1469 1470 1467 1463 1463 1461 1459 1456 1453 1450 1449 1447 1445 1442 1439 1436 1433 1430 1427 1425 1422 1420 1418 1416 1414 1413 1412 1410 1409 1409 1408 1407 1407 1406 1406 1406 1407 1407 1406
1495 1487 1479 1468 1467 1466 1468 1466 1460 1460 1459 1458 1456 1456 1451 1447 1445 1442 1440 1437 1434 1431 1428 1426 1423 1421 1419 1417 1415 1413 1412 1410 1409 1408 1407 1406 1406 1405 1405 1404 1405 1405 1405 1405
1494 1489 1477 1467 1466 1466 1470 1464 1459 1458 1457 1456 1455 1454 1450 1447 1444 1441 1438 1435 1432 1430 1427 1424 1422 1420 1418 1416 1414 1413 1411 1410 1408 1407 1406 1405 1404 1403 1403 1403 1403 1404 1403 1404
1491 1488 1476 1465 1465 1467 1463 1459 1457 1456 1455 1454 1452 1450 1447 1445 1442 1439 1437 1434 1431 1428 1426 1423 1421 1419 1417 1415 1414 1412 1411 1409 1407 1406 1405 1404 1403 1403 1403 1403 1403 1403 1402 1403
1478 1472 1464 1462 1461 1460 1459 1457 1456 1455 1453 1452 1450 1448 1446 1443 1441 1438 1436 1433 1430 1428 1425 1423 1421 1419 1417 1415 1414 1412 1410 1408 1407 1406 1405 1404 1403 1403 1403 1403 1403 1402 1402 1402
1473 1465 1461 1460 1459 1458 1457 1456 1454 1453 1451 1450 1448 1446 1444 1442 1440 1437 1435 1432 1430 1427 1424 1422 1421 1419 1417 1415 1414 1412 1410 1409 1408 1406 1405 1404 1404 1403 1403 1403 1402 1402 1402 1402
1469 1462 1458 1456 1456 1455 1454 1453 1452 1451 1449 1448 1446 1444 1442 1440 1438 1436 1434 1432 1430 1427 1425 1423 1421 1419 1418 1416 1414 1412 1410 1409 1408 1407 1406 1405 1404 1404 1403 1403 1403 1402 1402 1402
1461 1457 1456 1454 1453 1453 1451 1450 1449 1448 1446 1445 1444 1442 1441 1439 1437 1435 1433 1431 1429 1427 1425 1423 1421 1419 1418 1416 1414 1412 1410 1409 1408 1407 1406 1405 1405 1404 1404 1404 1403 1403 1403 1403
1454 1453 1453 1452 1451 1450 1449 1448 1447 1446 1444 1443 1442 1440 1439 1437 1436 1434 1432 1430 1428 1426 1424 1422 1421 1419 1418 1416 1414 1412 1411 1409 1408 1407 1406 1406 1405 1404 1403 1404 1404 1404 1404 1403
1451 1451 1450 1449 1449 1448 1447 1446 1445 1444 1443 1441 1440 1439 1437 1436 1434 1433 1431 1429 1428 1426 1424 1422 1420 1419 1417 1415 1414 1412 1411 1409 1408 1407 1407 1406 1405 1405 1404 1404 1403 1403 1403 1403
1448 1448 1448 1447 1446 1446 1445 1444 1443 1442 1441 1439 1438 1437 1436 1435 1433 1432 1430 1429 1427 1425 1423 1422 1420 1418 1417 1415 1413 1412 1411 1410 1409 1408 1407 1406 1406 1405 1405 1404 1403 1403 1402 1403
1445 1445 1444 1444 1443 1443 1442 1441 1441 1440 1439 1438 1437 1436 1435 1434 1432 1431 1429 1428 1426 1424 1423 1421 1419 1418 1416 1415 1413 1412 1411 1410 1409 1408 1407 1407 1406 1405 1405 1404 1403 1403 1402 1402
1442 1441 1441 1441 1440 1440 1440 1439 1439 1439 1438 1437 1436 1435 1434 1433 1431 1430 1429 1427 1426 1424 1422 1421 1419 1418 1416 1415 1413 1412 1411 1410 1409 1408 1407 1407 1406 1405 1404 1404 1403 1402 1402 1402
1439 1439 1439 1438 1438 1438 1437 1437 1437 1437 1436 1436 1435 1434 1433 1432 1430 1429 1428 1427 1425 1424 1422 1421 1419 1418 1416 1415 1413 1412 1411 1410 1409 1408 1407 1406 1405 1404 1404 1403 1402 1401 1401 1401
1436 1436 1437 1436 1436 1436 1436 1435 1435 1435 1435 1434 1433 1433 1432 1431 1430 1429 1427 1426 1424 1423 1422 1420 1419 1417 1416 1415 1413 1412 1410 1409 1408 1407 1406 1406 1405 1404 1403 1402 1401 1401 1400 1399
1434 1434 1434 1434 1434 1434 1434 1434 1434 1433 1433 1433 1432 1432 1431 1430 1429 1427 1426 1425 1424 1422 1421 1420 1418 1417 1415 1414 1413 1411 1410 1409 1408 1407 1406 1405 1404 1403 1402 1401 1401 1400 1399 1399
1432 1432 1432 1432 1433 1433 1433 1433 1432 1432 1432 1431 1431 1430 1430 1429 1428 1426 1425 1423 1423 1422 1420 1419 1418 1416 1415 1414 1413 1411 1410 1409 1408 1407 1406 1405 1404 1403 1402 1401 1400 1399 1399 1398
1431 1431 1431 1432 1431 1431 1431 1431 1431 1431 1430 1430 1429 1429 1428 1427 1426 1425 1424 1423 1422 1421 1419 1418 1417 1416 1414 1413 1412 1411 1410 1409 1408 1407 1406 1405 1404 1403 1402 1401 1400 1399 1398 1398
1430 1430 1430 1430 1430 1430 1430 1430 1430 1430 1429 1429 1428 1427 1427 1426 1425 1424 1422 1422 1421 1420 1418 1417 1416 1415 1414 1412 1411 1410 1409 1408 1407 1406 1405 1404 1403 1402 1401 1401 1400 1399 1398 1397
1428 1429 1429 1429 1429 1429 1429 1429 1429 1428 1428 1427 1427 1426 1425 1424 1423 1422 1422 1421 1420 1419 1417 1416 1415 1414 1413 1412 1411 1410 1409 1408 1407 1406 1405 1404 1403 1402 1401 1400 1400 1399 1398 1397
1427 1427 1428 1428 1427 1427 1427 1427 1427 1427 1426 1426 1425 1425 1424 1423 1422 1421 1420 1420 1419 1418 1417 1416 1414 1413 1412 1411 1410 1409 1408 1407 1406 1405 1404 1404 1403 1402 1401 1400 1400 1399 1398 1398
1425 1426 1426 1426 1426 1426 1426 1426 1425 1425 1424 1424 1423 1423 1422 1421 1421 1420 1419 1419 1418 1417 1416 1415 1414 1412 1411 1410 1410 1409 1408 1407 1406 1405 1404 1403 1403 1402 1401 1401 1400 1399 1399 1398
1423 1424 1424 1424 1424 1424 1424 1424 1424 1423 1423 1422 1422 1421 1421 1420 1419 1419 1418 1417 1417 1416 1415 1414 1413 1412 1411 1410 1409 1408 1407 1406 1405 1405 1404 1403 1403 1402 1401 1401 1400 1400 1399 1398